Location: El Chorro
(10.0985°N, 67.3542°W)
Time: 18:34:39
(UTC+00:00)

Tsikada Rocket - Pass Details

Date: 15 November 2025
Orbit: 958 x 1008 km, 82.9° (Epoch: 06 December)

Event Time Altitude Azimuth Distance (km) Brightness Sun altitude
Rises 22:15:15 0° 356° (N) 3,712 6.9 -3.5°
Reaches altitude 10° 22:17:47 10° 356° (N) 2,757 6.2 -4.1°
Maximum altitude 22:24:08 89° 269° (W) 991 4.1 -5.6°
Drops below altitude 10° 22:30:24 10° 177° (S) 2,724 6.6 -7.0°
Sets 22:32:53 0° 177° (S) 3,665 7.2 -7.6°
